THOR ABLESTAR DEB, 5785

Orbit data source: Space-Track

THOR ABLESTAR DEB, 5785 is space debris in LEO originally from a launch on Thu, 29 Jun 1961 UTC launched from the Air Force Eastern Test Range (AFETR). Debris objects in space refer to the collection of defunct objects orbiting the Earth. Examples of debris include non-operational satellites, rocket bodies, and fragments generated from explosions, collisions, or faulty payload assembly.

Loading next visibility...
Identifier
5785, 1961-015JZ
Orbit
LEO
Country
Flag of USUS
Related business
Manufacturer
Unknown
Mission
Spacecraft
Bus & Motor
Unknown
Mass
Unknown
Launch date (UTC)
1961-06-29 (64 years ago)
Launch vehicle
Unknown
Launch site
Air Force Eastern Test Range (AFETR)
Object type
Payload
Rocket body
Debris
Shape & HBR
Unknown shape, 0.1 m
Radar Cross Section
Small (<0.1 m²)

Expand to show TLE details & history
Last TLE update: 22 hours ago

TLE from 22 hours ago
0 THOR ABLESTAR DEB
1  5785U 61015JZ  25299.29809339  .00000769  00000-0  71427-3 0  9994
2  5785  65.6398 265.8926 0126131  79.0060 282.5164 13.84500240253632
Epoch: 2025-10-26T07:09Z
TLE epoch observation values (Epoch: 2025-10-26T07:09:15.268Z)
Latitude
-0.00006°
Longitude
123.66266°
Altitude
931.036 km
Speed
7.396 km/s
True Right ascension
17h 43m 34s
True Declination
0° 00' 00"
Sunlit
Object was in daylight at epoch
Visualization orbit readout
Latitude
Unknown
Longitude
Unknown
Altitude
Unknown
Speed
Unknown
Apparent Right ascension
Unknown
Apparent Declination
Unknown
Sunlit
N/A
Visualization observer readout
Local Sidereal Time
00:46:42
Azimuth
Unknown
Elevation
Unknown
Doppler factor
Unknown
Orbital elements
Apogee altitude
1,038.887 km
Perigee altitude
854.115 km
Semi-major axis
7,324.638 km
Eccentricity
0.01261
Inclination
65.6398°
RAAN
265.8926°
Arg. of periapsis
79.006°
True anomaly
281.1007°
Mean anomaly
282.5164°
Eccentric anomaly
281.80902°
Mean motion
3.46229 °/min
Orbital period
103.98 mins
BSTAR
0.00071427
Loading maneuver chart data...
Computing Atmospheric mass density...

Documentation

Showing up to 5 results
|